Regional Weather Roundup
Issued by NWS

Home | Current Version | Previous Version | Graphics & Text | Print | Product List | Glossary On
Versions: 1 2 3 4 5 6 7 8 9 10 11 12 13 14 15 16 17 18 19 20 21 22 23 24 25 26 27 28 29 30 31 32 33 34 35 36 37 38 39 40 41 42 43 44 45 46 47 48 49 50
000
ASUS43 KMPX 310010
RWRMN
WEATHER ROUNDUP FOR MINNESOTA
NATIONAL WEATHER SERVICE TWIN CITIES/CHANHASSEN MN
700 PM CDT SAT AUG 30 2014


NOTE: "FAIR" INDICATES FEW OR NO CLOUDS BELOW 12,000 FEET WITH NO
SIGNIFICANT WEATHER AND/OR OBSTRUCTIONS TO VISIBILITY. N/A MEANS
CURRENT SKY AND/OR WEATHER CONDITIONS ARE NOT AVAILABLE.

MNZ060>063-068>070-310100-
   Twin Cities Metro

CITY           SKY/WX    TMP DP  RH WIND       PRES   REMARKS
TWIN CITIES    MOCLDY    73  61  65 E9        29.84F
6HR MIN TEMP:  72; 6HR MAX TEMP:  77;

ST PAUL        CLEAR     71  61  70 E5        29.85S
CRYSTAL        CLOUDY    73  61  65 NE5       29.84R
BLAINE         MOCLDY    72  63  73 E3        29.85S
LAKEVILLE      LGT RAIN  66  63  88 NE6       29.86R
EDEN PRAIRIE   LGT RAIN  68  66  94 CALM      29.85R FOG
6HR MIN TEMP:  68; 6HR MAX TEMP:  79; 6HR PCP:  0.30;

SOUTH ST PAUL  CLEAR     72  60  67 E5        29.85S
LAKE ELMO      FAIR      70  63  78 E5        29.87S
$$
MNZ001>005-007-008-013>017-022>024-027-028-310100-
   Northwest Minnesota

CITY           SKY/WX    TMP DP  RH WIND       PRES   REMARKS
BEMIDJI        CLOUDY    64  58  81 SE7       29.87S
HALLOCK        SUNNY     70  52  52 SE8       29.81F
ROSEAU         SUNNY     66  55  68 E12       29.84F
WARROAD        SUNNY     66  55  68 E8        29.85F
THIEF RVR FALL SUNNY     68  50  52 E7        29.84S
CROOKSTON      PTSUNNY   72  55  56 SE7       29.82F
FOSSTON        CLOUDY    64  55  72 S7        29.86S
DETROIT LAKES  PTSUNNY   64  59  82 SE6       29.87F
MOORHEAD       CLOUDY    68  64  88 S5        29.84S
PARK RAPIDS    CLOUDY    61  61 100 CALM      29.87S FOG
MAHNOMEN       CLOUDY    64  59  85 SE6       29.85F
$$
MNZ006-009>011-018-025>026-310100-
   North Central Minnesota

CITY           SKY/WX    TMP DP  RH WIND       PRES   REMARKS
BAUDETTE       CLEAR     67  56  67 N7        29.85F
FLAG ISLAND    CLEAR     66  48  52 CALM      29.85F
INTL FALLS     CLEAR     69  51  52 E5        29.86F
6HR MIN TEMP:  66; 6HR MAX TEMP:  71;

WASKISH        CLEAR     68  57  68 S3        29.85F
BIG FORK       CLOUDY    64  57  77 E5        29.89F
LONGVILLE      CLOUDY    64  63  94 CALM      29.87S
GRAND RAPIDS   CLOUDY    64  57  77 CALM      29.89R
CRANE LAKE     CLEAR     63  55  77 CALM      29.91S
ORR            CLEAR     63  54  72 SE3       29.88S
COOK           CLOUDY    63  57  82 CALM      29.90S
WALKER         CLOUDY    63  59  88 CALM      29.87F
$$
MNZ012-019>021-037-310100-
   Northeast Minnesota

CITY           SKY/WX    TMP DP  RH WIND       PRES   REMARKS
DULUTH         MOCLDY    62  57  83 E9        29.89S
6HR MIN TEMP:  62; 6HR MAX TEMP:  68; 6HR PCP:  0.01;

ELY            MOCLDY    63  57  82 CALM      29.90S
HIBBING        CLOUDY    66  58  75 NE3       29.89S
EVELETH        CLOUDY    63  55  77 NE3       29.90F
DULUTH HARBOR  CLOUDY    64  61  88 NE15      29.89R
TWO HARBORS    CLOUDY    59  54  82 E5        29.89R HAZE
SILVER BAY     PTCLDY    57  57 100 CALM      29.89S FOG
GRAND MARAIS     N/A     62  60  93 CALM      29.88S
G MARAIS ARPRT CLOUDY    59  54  82 CALM      29.92S
$$
MNZ029>031-032-039>041-046>048-054>057-064-310100-
   West Central Minnesota

CITY           SKY/WX    TMP DP  RH WIND       PRES   REMARKS
FERGUS FALLS   PTSUNNY   66  57  72 S5        29.84F
WHEATON        SUNNY     63  57  82 E6        29.85F
MORRIS         SUNNY     66  61  82 S3        29.84F
ALEXANDRIA     PTSUNNY   69  62  78 W5        29.87S
ELBOW LAKE     CLOUDY    64  60  87 S6        29.85F
WADENA         CLOUDY    63  61  94 E3        29.86F
GLENWOOD       MOSUNNY   68  63  83 W7        29.86F
APPLETON       SUNNY     70  59  68 SE5       29.84F
BENSON         CLOUDY    66  61  82 CALM      29.85F
ORTONVILLE     SUNNY     70  61  73 SE6       29.84S
MADISON        SUNNY     70  63  78 E5        29.85S
WILLMAR        MOCLDY    70  63  78 W6        29.87S
$$
MNZ033>034-036-042>043-049>051-058-059-310100-
   Central Minnesota

CITY           SKY/WX    TMP DP  RH WIND       PRES   REMARKS
ST CLOUD       PTCLDY    73  64  73 S5        29.85S
6HR MIN TEMP:  71; 6HR MAX TEMP:  75; 6HR PCP: TRACE;

SAUK CENTRE    CLOUDY    68  64  88 E3        29.85S
PAYNESVILLE    HVY RAIN  68  64  85 CALM      29.85S
AITKIN         PTCLDY    72  63  73 N3        29.86S
PINE RIVER     CLOUDY    64  61  88 CALM      29.91S
BRAINERD       MOCLDY    67  62  84 N6        29.87S
STAPLES        CLOUDY    64  61  88 CALM      29.87S
LONG PRAIRIE   MOCLDY    68  61  77 CALM      29.87S
LITTLE FALLS   MOCLDY    68  63  83 CALM      29.86S
LITCHFIELD     PTCLDY    72  66  83 SW6       29.86S
BUFFALO        CLOUDY    69  64  82 E5        29.86S
MAPLE LAKE     PTCLDY    70  67  89 CALM      29.86S
$$
MNZ037-044-045-052-053-310100-
   East Central Minnesota

CITY           SKY/WX    TMP DP  RH WIND       PRES   REMARKS
PRINCETON      CLOUDY    73  63  68 SE3       29.85S
MORA           CLEAR     68  59  73 CALM      29.87S
CAMBRIDGE      PTCLDY    72  61  68 CALM      29.84S
RUSH CITY      CLEAR     70  61  72 CALM      29.86S
MOOSE LAKE     MOCLDY    68  61  77 NE3       29.85S
HINCKLEY       MOCLDY    70  63  78 SE3       29.86R
CLOQUET        CLOUDY    64  59  82 E8        29.88S
MCGREGOR       CLOUDY    68  63  83 N3        29.87S
$$
MNZ071>073-080-081-089-090-097-098-310100-
   Southwest Minnesota

CITY           SKY/WX    TMP DP  RH WIND       PRES   REMARKS
MONTEVIDEO     SUNNY     70  64  83 CALM      29.86S
GRANITE FALLS  SUNNY     68  62  80 CALM      29.86F HAZE
CANBY          PTSUNNY   69  63  81 E3        29.86S
MARSHALL       MOSUNNY   70  63  78 NE3       29.84F
REDWOOD FALLS  CLEAR     69  63  81 N3        29.85F
OLIVIA         PTCLDY    70  63  78 W5        29.85F
PIPESTONE      MOSUNNY   70  61  73 S5        29.87S
WINDOM         PTCLDY    72  64  78 CALM      29.87S
WORTHINGTON    SUNNY     72  61  68 SW6       29.88F
JACKSON        CLEAR     73  59  60 CALM      29.87F
TRACY          PTSUNNY   73  64  75 CALM      29.86S
SLAYTON        MOSUNNY   70  60  70 CALM      29.88S
$$
MNZ065>067-074>077-082>085-091>093-310100-
   South Central Minnesota

CITY           SKY/WX    TMP DP  RH WIND       PRES   REMARKS
MANKATO        CLEAR     72  61  68 W7        29.86R
NEW ULM        CLEAR     70  66  88 NW6       29.85F
ST JAMES       CLEAR     73  63  68 CALM      29.87S
FAIRMONT       PTCLDY    72  61  68 CALM      29.86S
GLENCOE        CLEAR     73  63  69 SW3       29.84F
FARIBAULT      MOCLDY    75  63  64 CALM      29.86S
OWATONNA       MOCLDY    73  66  78 CALM      29.86S
WASECA         CLEAR     72  61  68 W3        29.88S
ALBERT LEA     CLEAR     73  64  73 CALM      29.86S
$$
MNZ078>079-086>088-094>096-310100-
   Southeast Minnesota

CITY           SKY/WX    TMP DP  RH WIND       PRES   REMARKS
ROCHESTER      PTCLDY    71  65  81 E3        29.87S
6HR MIN TEMP:  71; 6HR MAX TEMP:  78; 6HR PCP: TRACE;

RED WING       PTCLDY    72  63  73 NE6       29.85S
STANTON        CLEAR     71  63  75 NE6       29.84S
DODGE CENTER   PTCLDY    72  68  88 CALM      29.86F
WINONA         CLEAR     73  64  73 NW5       29.86R
AUSTIN         CLEAR     73  64  73 W5        29.86S
PRESTON        CLEAR     72  69  89 CALM      29.87S
$$
ABBREVIATIONS USED IN REMARKS
   TC - TEMPERATURES IN CELSIUS
  WCI - WIND CHILL INDEX
   HX - HEAT INDEX
  VSB - VISIBILITY
$$


USA.gov is the U.S. government's official web portal to all federal, state and local government web resources and services.